IRIDIUM 167

Last updated on Fri Sep 11 2026 00:03:06 GMT+0000 (Coordinated Universal Time)

1 43931U 19002K 26253.48188172 .00000108 00000+0 31401-4 0 9990 2 43931 86.3989 317.9600 0002172 88.8203 271.3242 14.34217187401185
UTC large
Height (km)
Speed (km/s)
/
Latitude / Longitude
Inclination (degrees)
Orbital Period (minutes)
Azimuth
Elevation
Range (km)
Doppler Factor

Next 0 passes for location: London (51.5072 / 0.1276)

No passes found over London.
IRIDIUM 167